Location: Adrasan
(36.3319°N, 30.4314°E)
Time: 04:55:09
(UTC+00:00)

Daily predictions for brighter satellites

Satellite Brightness Start Highest point End
(mag) Time Altitude Azimuth Time Altitude Azimuth Time Altitude Azimuth
USA 229 DEB 4.3 00:05:43 10° NNW 00:13:11 65° NE 00:21:02 10° SE
USA 229 4.3 00:05:49 10° NNW 00:13:16 64° NE 00:21:06 10° SE
EO 1 Del DPAF 4.0 00:11:58 10° NNE 00:14:31 46° NNE 00:14:31 46° NNE
BREEZE-M R/B 3.5 00:06:11 10° NW 00:17:31 68° SW 00:20:27 22° SE
ATLAS CENTAUR R/B 3.3 00:14:16 10° NW 00:16:20 23° WNW 00:16:20 23° WNW
Cosmos 494 Rocket 4.2 00:14:48 10° NNW 00:19:10 50° WNW 00:19:10 50° WNW
AQUA 4.0 00:16:00 10° N 00:20:39 55° WNW 00:20:41 55° WNW
IRS-1D 4.0 00:19:47 10° NNE 00:25:05 59° E 00:26:58 38° SSE
Cosmos 1455 Rocket 2.9 00:21:19 10° N 00:25:47 81° W 00:25:55 80° SW
Cosmos 371 Rocket 4.3 00:25:59 33° WNW 00:26:03 33° WNW 00:30:27 10° N
MSX 3.8 00:20:55 10° NNE 00:26:42 79° ESE 00:28:43 43° S
Helios 1A 2.9 00:26:18 70° SE 00:26:44 81° ENE 00:30:57 10° N
UNK 3.9 00:29:03 53° W 00:29:03 53° W 00:33:12 10° NNW
Lacrosse 5 rocket 3.5 00:28:43 15° SE 00:29:10 15° ESE 00:31:25 10° E
NPP 4.4 00:26:00 10° N 00:30:54 37° WNW 00:31:35 35° W
Cosmos 1975 Rocket 3.7 00:34:20 40° WNW 00:34:20 40° WNW 00:38:14 10° N
Meteor 1-28 Rocket 3.4 00:36:00 58° NW 00:36:00 58° NW 00:39:12 10° NNW
ALOS 4.5 00:32:23 10° NE 00:35:51 20° E 00:39:17 10° SE
USA 306 3.1 00:37:53 52° WNW 00:38:18 55° NW 00:42:24 10° NE
USA 307 2.9 00:37:58 61° WNW 00:38:20 65° NW 00:42:30 10° NE
Resurs 1-4 Rocket 3.4 00:34:28 10° NNW 00:38:39 25° WNW 00:39:18 24° WNW
NOSS 3-1 (A) 4.1 00:32:03 10° NW 00:39:58 73° WSW 00:48:59 10° SSE
Cosmos 2074 Rocket 4.0 00:37:18 10° N 00:43:38 84° E 00:48:26 18° S
MOS 1 Rocket 3.6 00:46:53 39° W 00:46:53 39° W 00:50:35 10° NNW
CZ-4C R/B 3.1 00:38:57 10° NW 00:46:35 60° WSW 00:55:07 10° SSE
COSMOS 2441 4.3 00:43:13 10° N 00:48:06 80° WNW 00:49:44 42° SSW
Cosmos 2184 Rocket 3.9 00:45:07 10° N 00:51:25 87° W 00:56:14 18° S
Helios 1B rocket 3.0 00:47:30 10° NNE 00:51:28 51° E 00:53:17 28° SSE
SeaSat 1 3.5 00:48:52 10° NE 00:53:29 39° ESE 00:56:34 19° S
SL-19 R/B 4.5 00:48:06 10° NNE 00:54:18 80° ESE 00:57:59 25° S
CZ-2C R/B 3.8 00:52:58 10° NNE 00:57:43 36° E 01:02:20 10° SSE
Cosmos 2237 Rocket 3.4 00:57:20 23° W 00:59:13 28° WNW 01:04:04 10° N
Cosmos 1269 Rocket 4.1 00:54:36 10° NNW 00:59:54 77° ENE 01:05:09 10° SSE
Cosmos 839 Rocket 4.3 00:54:49 10° NW 01:01:18 61° WSW 01:09:15 10° SSE
Cosmos 1025 Rocket 4.4 01:05:05 23° W 01:05:18 23° WNW 01:08:46 10° NNW
ADEOS II 3.3 01:02:55 10° NNW 01:07:11 26° WNW 01:08:46 22° W
Cosmos 2084 Rocket 3.3 01:06:55 42° WSW 01:07:57 60° WNW 01:11:44 10° NNE
USA 308 3.9 01:06:55 26° W 01:08:32 36° NW 01:12:25 10° NNE
Cosmos 1703 3.4 01:07:00 25° S 01:09:09 71° E 01:13:05 10° NNE
Cosmos 1455 2.0 01:06:08 10° NNW 01:09:49 66° W 01:11:11 35° SSW
Cosmos 1544 Rocket 3.8 01:06:55 10° NNW 01:11:10 47° W 01:12:48 32° SW
Lacrosse 5 1.8 01:08:54 31° SW 01:11:23 88° ESE 01:16:30 10° NE
IDEFIX/ARIANE 42P 3.9 01:14:40 10° NNW 01:18:53 25° WNW 01:20:54 20° W
PAYLOAD A 4.3 01:15:01 10° NNE 01:19:40 59° ESE 01:24:18 10° S
Cosmos 292 Rocket 3.8 01:20:34 19° SSW 01:23:59 85° ESE 01:28:48 10° NNE
BREEZE-M DEB (TANK) 2.8 01:24:20 22° WSW 01:27:37 76° NW 01:30:13 10° NE
Cosmos 2278 Rocket 3.4 01:28:35 10° NW 01:32:45 21° W 01:34:20 19° WSW
Nadezhda 1 Rocket 4.5 01:30:35 18° SW 01:35:01 45° W 01:41:05 10° N
RUBIN 8/PSLV 4.5 01:32:19 10° N 01:36:35 76° WNW 01:40:19 13° SSW
SL-16 R/B 4.1 01:37:47 13° W 01:38:35 14° W 01:41:32 10° WNW
ATLAS 2A CENTAUR R/B 4.1 01:31:17 16° SW 01:38:35 29° S 01:43:36 10° ESE
OAO 1 4.5 01:34:30 11° W 01:39:43 69° S 01:45:09 10° ESE
SL-16 R/B 2.9 01:38:16 18° WSW 01:41:58 38° WNW 01:47:13 10° N
ERBS 4.4 01:42:06 11° WNW 01:43:48 15° NW 01:45:44 10° N
Cosmos 2341 Rocket 4.2 01:37:31 10° N 01:43:56 81° E 01:50:19 10° S
COSMOS 2455 2.9 01:40:09 15° SSW 01:45:15 74° WNW 01:51:18 10° NNE
FENGYUN 3A 3.8 01:40:42 10° N 01:45:59 61° WNW 01:51:16 10° SSW
METEOR-M 4.4 01:41:40 10° NNE 01:47:01 71° ESE 01:52:19 10° S
BREEZE-M DEB (TANK) 3.2 01:47:28 17° SW 01:49:39 70° SE 01:57:14 10° NE
Cosmos 1943 Rocket 2.2 01:44:34 10° NNW 01:50:11 64° WSW 01:55:45 10° S
Cosmos 2369 Rocket 3.3 01:46:40 10° N 01:52:04 47° ENE 01:57:25 10° SE
Meteor 2-1 Rocket 4.4 01:46:20 10° N 01:52:10 81° E 01:57:50 10° S
CZ-2D R/B 3.4 01:49:04 10° NNE 01:53:08 83° ESE 01:57:06 10° S
CZ-2C R/B 4.5 01:56:24 10° SE 02:01:01 34° ENE 02:05:40 10° N
ARIANE 5 R/B 2.6 01:56:17 10° N 02:01:18 61° WNW 02:06:13 10° SSW
Cosmos 2366 rocket 4.2 01:55:39 10° N 02:01:48 76° E 02:07:58 10° S
SL-08 R/B 3.5 01:59:27 10° SSE 02:04:01 74° ENE 02:08:37 10° N
MOS 1-B Rocket 4.3 01:58:33 10° S 02:04:01 41° W 02:09:18 10° NNW
IRS-1C 4.5 01:58:56 10° N 02:04:04 49° WNW 02:09:09 10° SW
OE (NEXTSAT) 4.5 02:01:19 10° NW 02:04:38 72° NNE 02:07:56 10° ESE
Cosmos 1603 3.9 01:59:04 10° SSW 02:04:38 74° ESE 02:10:16 10° NNE
[s.n.52588] 2.9 02:03:56 13° WSW 02:06:16 53° NW 02:09:00 10° NE
Cosmos 1328 4.0 02:02:32 10° SSW 02:06:19 49° W 02:10:10 10° N
[s.n.52587] 2.9 02:04:01 13° WSW 02:06:22 53° NW 02:09:06 10° NE
[s.n.52585] 2.9 02:04:06 13° WSW 02:06:27 53° NW 02:09:10 10° NE
[s.n.52586] 2.9 02:04:11 13° WSW 02:06:32 53° NW 02:09:15 10° NE
[s.n.52583] 2.9 02:04:16 13° WSW 02:06:37 53° NW 02:09:21 10° NE
[s.n.52581] 2.9 02:04:21 13° WSW 02:06:42 52° NW 02:09:25 10° NE
[s.n.52584] 2.9 02:04:26 13° WSW 02:06:47 52° NW 02:09:31 10° NE
[s.n.52579] 2.9 02:04:30 13° WSW 02:06:53 52° NW 02:09:36 10° NE
[s.n.52582] 2.9 02:04:35 13° WSW 02:06:58 52° NW 02:09:42 10° NE
[s.n.52580] 2.9 02:04:40 13° WSW 02:07:02 52° NW 02:09:46 10° NE
[s.n.52577] 3.0 02:04:45 13° WSW 02:07:08 52° NW 02:09:52 10° NE
[s.n.52575] 2.9 02:04:50 13° WSW 02:07:12 52° NW 02:09:56 10° NE
[s.n.52578] 3.0 02:04:55 12° WSW 02:07:18 52° NW 02:10:02 10° NE
[s.n.52570] 3.0 02:05:01 13° WSW 02:07:23 51° NW 02:10:06 10° NE
[s.n.52576] 3.0 02:05:05 12° WSW 02:07:28 51° NW 02:10:11 10° NE
[s.n.52568] 3.0 02:05:10 12° WSW 02:07:33 51° NW 02:10:16 10° NE
[s.n.52574] 3.0 02:05:14 12° WSW 02:07:39 51° NW 02:10:23 10° NE
[s.n.52566] 3.0 02:05:20 12° WSW 02:07:43 51° NW 02:10:27 10° NE
Lacrosse 5 rocket 1.7 02:04:16 11° WSW 02:07:46 47° NW 02:11:44 10° NNE
[s.n.52564] 3.0 02:05:25 12° WSW 02:07:48 51° NW 02:10:31 10° NE
[s.n.52569] 3.0 02:05:30 12° WSW 02:07:54 50° NW 02:10:37 10° NE
[s.n.52567] 3.0 02:05:35 12° WSW 02:07:59 50° NW 02:10:42 10° NE
[s.n.52562] 3.0 02:05:40 12° WSW 02:08:04 50° NW 02:10:47 10° NE
[s.n.52565] 3.0 02:05:45 12° WSW 02:08:10 50° NW 02:10:53 10° NE
[s.n.52560] 3.0 02:05:50 12° WSW 02:08:15 50° NW 02:10:58 10° NE
[s.n.52561] 3.0 02:05:54 12° WSW 02:08:20 50° NW 02:11:02 10° NE
[s.n.52563] 3.0 02:05:59 12° WSW 02:08:26 50° NW 02:11:09 10° NE
[s.n.52558] 3.0 02:06:05 12° WSW 02:08:31 50° NW 02:11:14 10° NE
[s.n.52556] 3.0 02:06:09 12° WSW 02:08:36 50° NW 02:11:20 10° NE
[s.n.52559] 3.0 02:06:15 12° WSW 02:08:41 49° NW 02:11:24 10° NE
[s.n.52554] 3.0 02:06:20 12° WSW 02:08:47 49° NW 02:11:31 10° NE
[s.n.52557] 3.0 02:06:25 12° WSW 02:08:52 49° NW 02:11:35 10° NE
[s.n.52552] 3.0 02:06:29 12° WSW 02:08:57 49° NW 02:11:41 10° NE
Cosmos 2251 Rocket 3.6 02:03:46 10° NNW 02:09:03 84° ENE 02:14:20 10° SSE
[s.n.52548] 3.0 02:06:36 12° WSW 02:09:03 49° NW 02:11:46 10° NE
[s.n.52555] 3.0 02:06:41 12° WSW 02:09:08 49° NW 02:11:51 10° NE
[s.n.52550] 3.0 02:06:46 12° WSW 02:09:13 48° NW 02:11:57 10° NE
[s.n.52553] 3.1 02:06:50 12° WSW 02:09:19 48° NW 02:12:02 10° NE
[s.n.52551] 3.1 02:06:56 12° WSW 02:09:25 48° NW 02:12:08 10° NE
[s.n.52546] 3.1 02:07:02 12° WSW 02:09:30 48° NW 02:12:13 10° NE
[s.n.52549] 3.1 02:07:07 12° WSW 02:09:35 48° NW 02:12:18 10° NE
[s.n.52544] 3.1 02:07:12 12° WSW 02:09:41 48° NW 02:12:24 10° NE
[s.n.52547] 3.1 02:07:16 12° WSW 02:09:47 48° NW 02:12:30 10° NE
Cosmos 1408 2.9 02:06:13 10° S 02:09:50 68° E 02:13:29 10° NNE
[s.n.52542] 3.1 02:07:22 12° WSW 02:09:52 48° NW 02:12:34 10° NE
[s.n.52540] 3.1 02:07:27 11° WSW 02:09:56 47° NW 02:12:40 10° NE
[s.n.52545] 3.1 02:07:33 11° WSW 02:10:02 47° NW 02:12:45 10° NE
[s.n.52543] 3.1 02:07:38 11° WSW 02:10:08 47° NW 02:12:50 10° NE
[s.n.52541] 3.1 02:07:43 11° WSW 02:10:13 47° NW 02:12:57 10° NE
[s.n.52538] 3.1 02:07:49 11° WSW 02:10:19 47° NW 02:13:02 10° NE
[s.n.52539] 3.1 02:07:53 11° WSW 02:10:24 47° NW 02:13:08 10° NE
[s.n.52537] 3.1 02:07:58 11° WSW 02:10:30 47° NW 02:13:14 10° NE
[s.n.52536] 3.1 02:08:04 11° WSW 02:10:35 47° NW 02:13:19 10° NE
Cosmos 2056 Rocket 4.4 02:05:40 10° S 02:10:35 50° ESE 02:15:37 10° NNE
[s.n.52533] 3.1 02:08:09 11° WSW 02:10:41 46° NW 02:13:24 10° NE
[s.n.52535] 3.1 02:08:15 11° WSW 02:10:46 46° NW 02:13:29 10° NE
[s.n.52534] 3.1 02:08:20 11° WSW 02:10:52 46° NW 02:13:35 10° NE
Cosmos 1892 3.2 02:09:02 10° S 02:12:47 64° E 02:16:33 10° NNE
SL-8 Rocket 4.0 02:06:40 10° N 02:12:58 72° W 02:19:15 10° S
ALOS 3.1 02:09:04 10° N 02:13:16 34° WNW 02:17:26 10° SW
Cosmos 1825 4.1 02:11:53 10° SSE 02:15:12 32° E 02:18:32 10° NNE
NOSS 3-3 (A) 3.8 02:11:24 10° SSW 02:16:52 83° WNW 02:23:05 10° NNE
NOSS 3-3 (C) 3.8 02:11:30 10° SSW 02:16:58 84° WNW 02:23:11 10° NNE
YAOGAN 6 3.5 02:14:02 10° NNE 02:17:30 49° E 02:21:00 10° S
